Weather Roundup
Issued by NWS Chicago, IL

Home | Current Version | Previous Version | Graphics & Text | Print | Product List | Glossary On
Versions: 1 2 3 4 5 6 7 8 9 10 11 12 13 14 15 16 17 18 19 20 21 22 23 24 25 26 27 28 29 30 31 32 33 34 35 36 37 38 39 40 41 42 43 44 45 46 47 48 49 50
000
NZUS59 KLOT 282204
HRRLOT

CHICAGO AREA WEATHER ROUNDUP
NATIONAL WEATHER SERVICE CHICAGO/ROMEOVILLE IL
500 PM CDT WED JUN 28 2017

NOTE: "FAIR" INDICATES FEW OR NO CLOUDS BELOW 12,000 FEET WITH NO
SIGNIFICANT WEATHER AND/OR OBSTRUCTIONS TO VISIBILITY.

* THESE STATIONS ARE NOT UNDER NWS QUALITY CONTROL. THEY ALSO MAY NOT
  REPORT WEATHER SUCH AS PRECIPITATION OR FOG.

ILZ005-006-012>014-019>023-282300-
NORTHEAST ILLINOIS

CITY           SKY/WX    TMP DP  RH WIND       PRES   REMARKS
OHARE          CLOUDY    80  59  48 S28G33    29.82F HX  81
MIDWAY         CLOUDY    81  59  47 S23G32    29.84R HX  81
AURORA         LGT RAIN  74  66  76 S21G26    29.84R
LANSING*       CLOUDY    81  58  44 S18G33    29.87F HX  81
JOLIET*        MOSUNNY   81  63  54 SW9G20    29.87R HX  82
WAUKEGAN       CLOUDY    72  66  81 CALM      29.80F
DUPAGE AIRPORT CLOUDY    75  65  70 S17G25    29.82F
WHEELING       LGT RAIN  76  65  68 S20G30    29.82F
MORRIS*        CLOUDY    79  61  53 SW17G25   29.87R HX  80
LEWIS AIRPORT* LGT RAIN N/A N/A N/A SW21G26   29.86R
$$

WIZ051-052-058>065-066-070>072-282300-
SOUTHEAST WISCONSIN

CITY           SKY/WX    TMP DP  RH WIND       PRES   REMARKS
MILWAUKEE      LGT RAIN  70  66  87 S12       29.79S
KENOSHA*       TSTM      70  66  87 S15G25    29.78F FOG
RACINE*        HVY RAIN  67  63  87 S8        29.81F
WAUKESHA       LGT RAIN  66  63  88 SW9       29.81S
$$

INZ001>003-010>013-019-020-282300-
NORTHWEST INDIANA

CITY           SKY/WX    TMP DP  RH WIND       PRES   REMARKS
GARY*          NOT AVBL
MICHIGAN CITY* NOT AVBL
RENSSELAER*    NOT AVBL
VALPARAISO     CLOUDY    81  58  45 S15G25    29.90F HX  81
$$

LMZ740>746-282300-
SOUTHERN LAKE MICHIGAN

STATION/POSITION TIME  SKY/WX   TEMP WIND        PRES    VSBY
                                AIR  DIR/SP/G
                 (UTC)          (F)  (DEG/KT/KT) (MB)    (MI)
HARRISON CRIB    2140            79  190/ 26/ 29   N/A
BURNHAM HARBOR   2200            80                N/A
CALUMET HARBOR   2130            81  170/ 18/ 30 1010.4R
BURNS HARBOR     2140            79  190/ 25/ 34 1011.2F
MICHIGAN CITY    2140            78  170/ 20/ 22   N/A
$$

ABBREVIATIONS USED IN REMARKS
   TC - TEMPERATURE IN CELSIUS
  WCI - WIND CHILL INDEX
   HX - HEAT INDEX
  VSB - VISIBILITY
$$




USA.gov is the U.S. government's official web portal to all federal, state and local government web resources and services.